Flag for Brazil Weather past 2 weeks in Florianópolis, Santa Catarina, Brazil

Now
70 °F

Scattered clouds.


Feels Like: 70 °F
Forecast: 64 / 71 °F
Wind: 8 mph from North

Location: Florianopolis Aeroporto

Current Time: Sep 23, 2014 at 10:10:52 AM

Latest Report: Sep 23, 2014 at 9:00 AM


Visibility: N/A

Pressure: 30.12 "Hg

Humidity: 69%

Dew point: 59 °F

Location of FlorianópolisLocation

Historic Weather in Florianópolis — Graph

°F

Florianópolis temperature yesterday

Maximum temperature yesterday: 72 °F (at 1:00 PM)
Minimum temperature yesterday: 59 °F (at 2:00 AM)
Average temperature yesterday: 65 °F

Past Weeks' High & Low Weather Summary

 TemperatureHumidityPressure
High86 °F (Sep 10, 1:00 PM)100% (Sep 8, 3:00 PM)30.21 "Hg (Sep 8, 3:00 PM)
Low46 °F (Sep 18, 12:00 PM)40% (Sep 10, 1:00 PM)29.68 "Hg (Sep 10, 3:00 PM)
Average68 °F76%30.00 "Hg
* Reported Sep 8 9:00 AM — Sep 23 9:00 AM, Florianópolis, Weather by CustomWeather, © 2014

Note: Actual official high and low records may vary slightly from our data, if they occured in-between our weather recording intervals... More about our weather records

Advertising

Florianópolis weather history for previous 24 hours

 ConditionsComfort  
Time TempWeatherWind HumidityBarometerVisibility
9:00 AM
Sep 23
70 °FScattered clouds.8 mph69%30.12 "HgN/A
8:00 AM66 °FBroken clouds.8 mph78%30.12 "HgN/A
7:00 AM64 °FScattered showers. Broken clouds.8 mph83%30.09 "HgN/A
6:00 AM63 °FScattered showers. Partly sunny.6 mph88%30.09 "HgN/A
5:00 AM63 °FPassing clouds.5 mph88%30.09 "Hg4 mi
4:00 AM63 °FLight rain. Passing clouds.5 mph88%30.09 "Hg4 mi
3:00 AM63 °FLight rain. Passing clouds.5 mph88%30.09 "Hg4 mi
2:00 AM64 °FPassing clouds.3 mph83%30.12 "HgN/A
1:00 AM64 °FPassing clouds.2 mph83%30.12 "HgN/A
12:00 AM64 °FPassing clouds.3 mph83%30.15 "HgN/A
11:00 PM
Sep 22
64 °FPassing clouds.5 mph83%30.15 "HgN/A
10:00 PM64 °FPassing clouds.5 mph83%30.18 "HgN/A
9:00 PM64 °FPassing clouds.3 mph78%30.18 "HgN/A
8:00 PM64 °FPassing clouds.No wind78%30.15 "HgN/A
7:00 PM66 °FPassing clouds.5 mph73%30.15 "HgN/A
6:00 PM66 °FPassing clouds.7 mph73%30.15 "HgN/A
5:00 PM70 °FPassing clouds.10 mph60%30.12 "HgN/A
4:00 PM70 °FPassing clouds.13 mph64%30.15 "HgN/A
3:00 PM72 °FPassing clouds.10 mph57%30.15 "HgN/A
2:00 PM70 °FPassing clouds.10 mph60%30.15 "HgN/A
1:00 PM72 °FPassing clouds.13 mph57%30.18 "HgN/A
12:00 PM70 °FPassing clouds.12 mph57%30.21 "HgN/A
11:00 AM70 °FPassing clouds.8 mph57%30.21 "HgN/A
10:00 AM70 °FPassing clouds.10 mph57%30.21 "HgN/A
Weather by CustomWeather, © 2014

See weather overviewHow to use our weather pages